Hourly Data Report for July 18, 2021

FISHER BRANCH (AUT)
MANITOBA
Current Station Operator: ECCC - MSC

51°05'00.100" N
97°33'16.200" W
253.00 m
50309J6
71442
WSZ

Download Data

Hourly Data (July 2021)
Hourly Data Report for July 18, 2021
TIME
LST
Temp Definition
°C
Dew Point Definition
°C
Rel Hum Definition
%
Precip. Amount Definition
mm

Wind Dir Definition
10's deg

Wind Spd Definition
km/h
Visibility Definition
km
Stn Press Definition
kPa
Hmdx Definition


Wind Chill Definition


Weather Definition


00:00 21.5 13.5 60 0.0 16 9   98.87 25   LegendNANA
01:00 20.8 13.6 63 0.0 17 7   98.85     LegendNANA
02:00 18.5 13.3 72 0.0 16 5   98.92     LegendNANA
03:00 16.8 13.0 78 0.0 12 5   98.97     LegendNANA
04:00 18.4 13.7 74 0.0 17 9   98.95     LegendNANA
05:00 17.5 13.0 75 0.0 16 8   98.97     LegendNANA
06:00 18.6 13.8 74 0.0 16 8   98.95     LegendNANA
07:00 20.8 14.0 65 0.0 16 10   98.94     LegendNANA
08:00 23.8 14.5 56 0.0 17 12   98.97 27   LegendNANA
09:00 26.7 14.9 48 0.0 18 17   98.93 31   LegendNANA
10:00 28.8 16.0 46 0.0 19 15   98.87 33   LegendNANA
11:00 30.3 16.3 43 0.0 19 21   98.86 35   LegendNANA
12:00 31.5 15.7 39 0.0 18 20   98.80 36   LegendNANA
13:00 32.6 16.4 38 0.0 20 19   98.76 37   LegendNANA
14:00 33.3 15.5 34 0.0 20 15   98.70 38   LegendNANA
15:00 32.8 17.2 39 0.0 18 18   98.67 38   LegendNANA
16:00 34.1 15.8 34 0.0 21 18   98.64 39   LegendNANA
17:00 33.5 14.7 32 0.0 21 16   98.62 37   LegendNANA
18:00 32.5 16.5 38 0.0 21 18   98.59 37   LegendNANA
19:00 31.7 18.3 45 0.0 21 12   98.58 38   LegendNANA
20:00 30.7 18.1 47 0.0 21 8   98.59 37   LegendNANA
21:00 28.6 18.7 55 0.0 19 7   98.60 35   LegendNANA
22:00 24.9 17.7 64 0.0 35 18   98.70 31   LegendNANA
23:00 22.6 18.0 75 0.0 33 15   98.75 29   LegendNANA

Notes on Data Quality.

Legend

  • E = Estimated
  • M = Missing
  • NA = Not Available*
  • [empty] = Indicates an unobserved value
Date modified: